| time (UTC) | temp F | wind direction | speed MPH | gust MPH | rain 1hr in | rain 24hr in | rain mn in | humidity % | barometer mb |
| 20260502123010 | 69 | 69 | 6.0 | 12.0 | 0.00 | 0.00 | 0.00 | 60 | 1013.3 |
| 20260502122011 | 69 | 42 | 5.0 | 13.0 | 0.00 | 0.00 | 0.00 | 61 | 1013.4 |
| 20260502121009 | 68 | 58 | 5.0 | 12.0 | 0.00 | 0.00 | 0.00 | 62 | 1013.6 |
| 20260502115009 | 67 | 51 | 6.0 | 12.0 | 0.00 | 0.00 | 0.00 | 64 | 1013.7 |
| 20260502114008 | 67 | 63 | 4.0 | 12.0 | 0.00 | 0.00 | 0.00 | 64 | 1013.9 |
| 20260502113010 | 67 | 65 | 5.0 | 9.0 | 0.00 | 0.00 | 0.00 | 63 | 1014.0 |
| 20260502112010 | 67 | 55 | 5.0 | 12.0 | 0.00 | 0.00 | 0.00 | 63 | 1013.9 |
| 20260502111010 | 67 | 60 | 5.0 | 9.0 | 0.00 | 0.00 | 0.00 | 63 | 1014.0 |
| 20260502110009 | 68 | 59 | 3.0 | 8.0 | 0.00 | 0.00 | 0.00 | 63 | 1014.1 |
| 20260502105010 | 68 | 61 | 3.0 | 7.0 | 0.00 | 0.00 | 0.00 | 62 | 1013.9 |
| 20260502104010 | 68 | 55 | 4.0 | 10.0 | 0.00 | 0.00 | 0.00 | 62 | 1014.0 |
| 20260502103010 | 68 | 59 | 5.0 | 12.0 | 0.00 | 0.00 | 0.00 | 62 | 1014.0 |
| 20260502102010 | 68 | 70 | 5.0 | 10.0 | 0.00 | 0.00 | 0.00 | 62 | 1014.0 |
| 20260502101009 | 67 | 51 | 6.0 | 12.0 | 0.00 | 0.00 | 0.00 | 62 | 1014.1 |
| 20260502091009 | 68 | 57 | 5.0 | 9.0 | 0.00 | 0.00 | 0.00 | 61 | 1014.2 |
| 20260502071010 | 71 | 53 | 4.0 | 9.0 | 0.00 | 0.00 | 0.00 | 57 | 1014.1 |
| 20260502070009 | 72 | 53 | 2.0 | 7.0 | 0.00 | 0.00 | 0.00 | 56 | 1014.1 |
| 20260502065010 | 72 | 44 | 3.0 | 10.0 | 0.00 | 0.00 | 0.00 | 56 | 1014.0 |
| 20260502064010 | 73 | 67 | 3.0 | 8.0 | 0.00 | 0.00 | 0.00 | 56 | 1014.0 |
| 20260502063009 | 74 | 65 | 6.0 | 10.0 | 0.00 | 0.00 | 0.00 | 55 | 1014.1 |
| 20260502062010 | 74 | 60 | 3.0 | 9.0 | 0.00 | 0.00 | 0.00 | 54 | 1014.1 |
| 20260502061010 | 74 | 57 | 6.0 | 12.0 | 0.00 | 0.00 | 0.00 | 53 | 1014.1 |
| 20260502060010 | 73 | 58 | 3.0 | 7.0 | 0.00 | 0.00 | 0.00 | 55 | 1014.1 |
| 20260502055010 | 73 | 46 | 3.0 | 7.0 | 0.00 | 0.00 | 0.00 | 56 | 1014.3 |
| 20260502054010 | 73 | 45 | 3.0 | 8.0 | 0.00 | 0.00 | 0.00 | 56 | 1014.4 |
| 20260502053009 | 73 | 34 | 3.0 | 8.0 | 0.00 | 0.00 | 0.00 | 56 | 1014.3 |
| 20260502052010 | 73 | 50 | 5.0 | 10.0 | 0.00 | 0.00 | 0.00 | 55 | 1014.4 |
| 20260502051009 | 73 | 56 | 4.0 | 12.0 | 0.00 | 0.00 | 0.00 | 55 | 1014.4 |
| 20260502050010 | 73 | 39 | 3.0 | 10.0 | 0.00 | 0.00 | 0.00 | 55 | 1014.5 |
| 20260502045010 | 73 | 41 | 5.0 | 10.0 | 0.00 | 0.00 | 0.00 | 54 | 1014.5 |
| 20260502044009 | 73 | 35 | 4.0 | 9.0 | 0.00 | 0.00 | 0.00 | 53 | 1014.7 |
| 20260502043010 | 73 | 49 | 5.0 | 10.0 | 0.00 | 0.00 | 0.00 | 52 | 1014.7 |
| 20260502042010 | 73 | 59 | 5.0 | 10.0 | 0.00 | 0.00 | 0.00 | 51 | 1014.8 |
| 20260502041009 | 74 | 49 | 4.0 | 12.0 | 0.00 | 0.00 | 0.00 | 51 | 1014.8 |
| 20260502040010 | 74 | 46 | 5.0 | 12.0 | 0.00 | 0.00 | 0.00 | 50 | 1015.0 |
| 20260502035009 | 74 | 52 | 7.0 | 12.0 | 0.00 | 0.00 | 0.00 | 49 | 1015.1 |
| 20260502034010 | 75 | 26 | 5.0 | 13.0 | 0.00 | 0.00 | 0.00 | 49 | 1015.2 |
| 20260502033008 | 75 | 25 | 5.0 | 13.0 | 0.00 | 0.00 | 0.00 | 49 | 1015.4 |
| 20260502032010 | 75 | 29 | 9.0 | 16.0 | 0.00 | 0.00 | 0.00 | 48 | 1015.5 |
| 20260502031009 | 75 | 20 | 8.0 | 14.0 | 0.00 | 0.00 | 0.00 | 48 | 1015.6 |
| 20260502030010 | 74 | 33 | 5.0 | 10.0 | 0.00 | 0.00 | 0.00 | 51 | 1015.8 |
| 20260502025009 | 74 | 39 | 6.0 | 12.0 | 0.00 | 0.00 | 0.00 | 51 | 1016.0 |
| 20260502024010 | 74 | 31 | 5.0 | 12.0 | 0.00 | 0.00 | 0.00 | 51 | 1016.2 |
| 20260502023010 | 74 | 58 | 5.0 | 13.0 | 0.00 | 0.00 | 0.00 | 51 | 1016.4 |
| 20260502022009 | 73 | 42 | 4.0 | 7.0 | 0.00 | 0.00 | 0.00 | 52 | 1016.7 |
| 20260502021009 | 73 | 38 | 5.0 | 10.0 | 0.00 | 0.00 | 0.00 | 52 | 1016.8 |
| 20260502020009 | 73 | 41 | 3.0 | 7.0 | 0.00 | 0.00 | 0.00 | 54 | 1017.0 |
| 20260502015010 | 73 | 42 | 4.0 | 7.0 | 0.00 | 0.00 | 0.00 | 55 | 1017.2 |
| 20260502014009 | 73 | 42 | 3.0 | 9.0 | 0.00 | 0.00 | 0.00 | 55 | 1017.4 |
| 20260502013009 | 73 | 44 | 3.0 | 10.0 | 0.00 | 0.00 | 0.00 | 56 | 1017.5 |
| 20260502012009 | 72 | 47 | 3.0 | 9.0 | 0.00 | 0.00 | 0.00 | 56 | 1017.6 |
| 20260502011009 | 72 | 44 | 3.0 | 9.0 | 0.00 | 0.00 | 0.00 | 57 | 1017.8 |
| 20260502010009 | 71 | 65 | 3.0 | 6.0 | 0.00 | 0.00 | 0.00 | 58 | 1018.0 |
| 20260502005010 | 71 | 65 | 3.0 | 8.0 | 0.00 | 0.00 | 0.00 | 60 | 1018.1 |
| 20260502004010 | 71 | 68 | 3.0 | 8.0 | 0.00 | 0.00 | 0.00 | 59 | 1018.1 |
| 20260502003009 | 70 | 69 | 4.0 | 9.0 | 0.00 | 0.00 | 0.00 | 59 | 1018.2 |
| 20260502002011 | 70 | 54 | 3.0 | 9.0 | 0.00 | 0.00 | 0.00 | 60 | 1018.2 |
| 20260502001009 | 69 | 63 | 3.0 | 7.0 | 0.00 | 0.00 | 0.00 | 61 | 1018.2 |
| 20260502000010 | 68 | 53 | 5.0 | 9.0 | 0.00 | 0.00 | 0.00 | 61 | 1018.2 |
| 20260501235009 | 68 | 55 | 5.0 | 9.0 | 0.00 | 0.00 | 0.00 | 61 | 1018.2 |
| 20260501234010 | 68 | 54 | 3.0 | 10.0 | 0.00 | 0.00 | 0.00 | 62 | 1018.2 |
| 20260501233010 | 67 | 67 | 5.0 | 12.0 | 0.00 | 0.00 | 0.00 | 62 | 1018.3 |
| 20260501232009 | 66 | 53 | 5.0 | 12.0 | 0.00 | 0.00 | 0.00 | 65 | 1018.4 |
| 20260501231009 | 65 | 58 | 5.0 | 12.0 | 0.00 | 0.00 | 0.00 | 66 | 1018.4 |
| 20260501230009 | 64 | 62 | 5.0 | 12.0 | 0.00 | 0.00 | 0.00 | 67 | 1018.4 |
| 20260501225010 | 64 | 65 | 5.0 | 10.0 | 0.00 | 0.00 | 0.00 | 68 | 1018.5 |
| 20260501224009 | 63 | 68 | 5.0 | 10.0 | 0.00 | 0.00 | 0.00 | 69 | 1018.5 |
| 20260501223010 | 62 | 70 | 5.0 | 9.0 | 0.00 | 0.00 | 0.00 | 70 | 1018.4 |
| 20260501222009 | 62 | 71 | 5.0 | 10.0 | 0.00 | 0.00 | 0.00 | 70 | 1018.5 |
| 20260501221010 | 62 | 80 | 6.0 | 10.0 | 0.00 | 0.00 | 0.00 | 71 | 1018.5 |
| 20260501220009 | 61 | 67 | 4.0 | 9.0 | 0.00 | 0.00 | 0.00 | 71 | 1018.5 |
| 20260501215010 | 60 | 67 | 5.0 | 10.0 | 0.00 | 0.00 | 0.00 | 72 | 1018.5 |
| 20260501214009 | 60 | 74 | 4.0 | 9.0 | 0.00 | 0.00 | 0.00 | 72 | 1018.4 |
| 20260501213010 | 60 | 79 | 6.0 | 10.0 | 0.00 | 0.00 | 0.00 | 73 | 1018.3 |
| 20260501212009 | 59 | 79 | 5.0 | 9.0 | 0.00 | 0.00 | 0.00 | 73 | 1018.2 |
| 20260501211010 | 59 | 81 | 5.0 | 9.0 | 0.00 | 0.00 | 0.00 | 73 | 1018.2 |
| 20260501210010 | 59 | 80 | 5.0 | 10.0 | 0.00 | 0.00 | 0.00 | 72 | 1018.1 |
| 20260501205009 | 60 | 77 | 6.0 | 10.0 | 0.00 | 0.00 | 0.00 | 73 | 1018.1 |
| 20260501204010 | 60 | 78 | 5.0 | 10.0 | 0.00 | 0.00 | 0.00 | 72 | 1018.2 |
| 20260501203009 | 60 | 80 | 6.0 | 9.0 | 0.00 | 0.00 | 0.00 | 72 | 1018.1 |
| 20260501202012 | 60 | 79 | 5.0 | 9.0 | 0.00 | 0.00 | 0.00 | 72 | 1018.1 |
| 20260501201009 | 60 | 82 | 4.0 | 9.0 | 0.00 | 0.00 | 0.00 | 72 | 1018.1 |
| 20260501200009 | 60 | 78 | 5.0 | 9.0 | 0.00 | 0.00 | 0.00 | 72 | 1018.1 |
| 20260501195009 | 60 | 78 | 3.0 | 7.0 | 0.00 | 0.00 | 0.00 | 71 | 1018.1 |
| 20260501194010 | 60 | 78 | 3.0 | 7.0 | 0.00 | 0.00 | 0.00 | 70 | 1018.2 |
| 20260501193009 | 61 | 78 | 4.0 | 7.0 | 0.00 | 0.00 | 0.00 | 70 | 1018.2 |
| 20260501192010 | 61 | 77 | 3.0 | 7.0 | 0.00 | 0.00 | 0.00 | 69 | 1018.2 |
| 20260501191009 | 61 | 77 | 3.0 | 7.0 | 0.00 | 0.00 | 0.00 | 70 | 1018.2 |
| 20260501190010 | 61 | 76 | 3.0 | 7.0 | 0.00 | 0.00 | 0.00 | 70 | 1018.1 |
| 20260501185009 | 61 | 76 | 4.0 | 7.0 | 0.00 | 0.00 | 0.00 | 70 | 1018.0 |
| 20260501184010 | 61 | 76 | 3.0 | 7.0 | 0.00 | 0.00 | 0.00 | 70 | 1018.0 |
| 20260501183009 | 61 | 76 | 3.0 | 7.0 | 0.00 | 0.00 | 0.00 | 70 | 1018.0 |
| 20260501182011 | 61 | 76 | 3.0 | 5.0 | 0.00 | 0.00 | 0.00 | 70 | 1018.1 |
| 20260501181009 | 61 | 76 | 4.0 | 8.0 | 0.00 | 0.00 | 0.00 | 71 | 1018.2 |
| 20260501180010 | 61 | 76 | 3.0 | 7.0 | 0.00 | 0.00 | 0.00 | 71 | 1018.1 |
| 20260501175009 | 61 | 76 | 3.0 | 8.0 | 0.00 | 0.00 | 0.00 | 71 | 1018.2 |
| 20260501174010 | 61 | 77 | 3.0 | 8.0 | 0.00 | 0.00 | 0.00 | 71 | 1018.3 |
| 20260501173009 | 61 | 76 | 5.0 | 8.0 | 0.00 | 0.00 | 0.00 | 71 | 1018.3 |
| 20260501172009 | 61 | 76 | 3.0 | 8.0 | 0.00 | 0.00 | 0.00 | 71 | 1018.3 |
| 20260501171009 | 61 | 76 | 3.0 | 8.0 | 0.00 | 0.00 | 0.00 | 71 | 1018.5 |
| 20260501170009 | 61 | 73 | 3.0 | 8.0 | 0.00 | 0.00 | 0.00 | 71 | 1018.5 |
| 20260501165009 | 61 | 71 | 5.0 | 6.0 | 0.00 | 0.00 | 0.00 | 71 | 1018.6 |
| 20260501164009 | 62 | 69 | 3.0 | 9.0 | 0.00 | 0.00 | 0.00 | 70 | 1018.6 |
| 20260501163010 | 61 | 71 | 4.0 | 9.0 | 0.00 | 0.00 | 0.00 | 71 | 1018.7 |
| 20260501162010 | 61 | 72 | 4.0 | 8.0 | 0.00 | 0.00 | 0.00 | 71 | 1018.8 |
| 20260501161010 | 62 | 71 | 5.0 | 10.0 | 0.00 | 0.00 | 0.00 | 70 | 1018.9 |
| 20260501160010 | 62 | 74 | 5.0 | 9.0 | 0.00 | 0.00 | 0.00 | 70 | 1019.0 |
| 20260501155009 | 62 | 74 | 5.0 | 9.0 | 0.00 | 0.00 | 0.00 | 71 | 1019.1 |
| 20260501154010 | 62 | 77 | 4.0 | 9.0 | 0.00 | 0.00 | 0.00 | 71 | 1019.3 |
| 20260501153010 | 62 | 78 | 4.0 | 8.0 | 0.00 | 0.00 | 0.00 | 71 | 1019.3 |
| 20260501152009 | 62 | 77 | 3.0 | 7.0 | 0.00 | 0.00 | 0.00 | 71 | 1019.4 |
| 20260501151010 | 62 | 77 | 3.0 | 7.0 | 0.00 | 0.00 | 0.00 | 70 | 1019.5 |
| 20260501150009 | 63 | 77 | 3.0 | 9.0 | 0.00 | 0.00 | 0.00 | 70 | 1019.5 |
| 20260501145010 | 63 | 77 | 3.0 | 9.0 | 0.00 | 0.00 | 0.00 | 70 | 1019.6 |
| 20260501144009 | 63 | 76 | 3.0 | 9.0 | 0.00 | 0.00 | 0.00 | 70 | 1019.7 |
| 20260501143010 | 63 | 76 | 3.0 | 9.0 | 0.00 | 0.00 | 0.00 | 70 | 1019.8 |
| 20260501142009 | 63 | 78 | 4.0 | 8.0 | 0.00 | 0.00 | 0.00 | 69 | 1019.9 |
| 20260501141010 | 63 | 76 | 4.0 | 10.0 | 0.00 | 0.00 | 0.00 | 69 | 1019.9 |
| 20260501140009 | 64 | 77 | 4.0 | 8.0 | 0.00 | 0.00 | 0.00 | 68 | 1020.1 |
| 20260501135010 | 64 | 76 | 3.0 | 8.0 | 0.00 | 0.00 | 0.00 | 68 | 1020.1 |